This is the latest recevied weather packets stored in our database for station/object K6CED. If no packets are shown the sender has not sent any weather packets the latest 10 day(s).
| Time | Temp. | Humidity | Pressure | Rain* | Wind** | Luminosity | Snow |
|---|---|---|---|---|---|---|---|
| 1788136124 | 31.11° C | 43% | 1013.5 hPa | 0 mm | - | 192 W/m² | - |
| 1788135823 | 30.56° C | 43% | 1013.7 hPa | 0 mm | - | 207 W/m² | - |
| 1788135519 | 31.11° C | 43% | 1013.5 hPa | 0 mm | - | 219 W/m² | - |
| 1788135214 | 31.67° C | 42% | 1013.6 hPa | 0 mm | - | 237 W/m² | - |
| 1788134912 | 31.67° C | 42% | 1013.4 hPa | 0 mm | - | 259 W/m² | - |
| 1788134612 | 31.11° C | 42% | 1013.4 hPa | 0 mm | - | 277 W/m² | - |
| 1788134310 | 32.22° C | 41% | 1013.6 hPa | 0 mm | - | 294 W/m² | - |
| 1788134005 | 32.22° C | 41% | 1013.4 hPa | 0 mm | - | 308 W/m² | - |
| 1788133701 | 31.67° C | 41% | 1013.6 hPa | 0 mm | - | 319 W/m² | - |
| 1788133396 | 32.22° C | 40% | 1013.4 hPa | 0 mm | - | 337 W/m² | - |
| 1788133092 | 31.67° C | 41% | 1013.5 hPa | 0 mm | - | 351 W/m² | - |
| 1788132787 | 31.67° C | 42% | 1013.6 hPa | 0 mm | - | 367 W/m² | - |
| 1788132483 | 32.22° C | 39% | 1013.5 hPa | 0 mm | - | 382 W/m² | - |
| 1788132179 | 32.22° C | 38% | 1013.5 hPa | 0 mm | - | 401 W/m² | - |
| 1788131875 | 32.78° C | 38% | 1013.3 hPa | 0 mm | - | 422 W/m² | - |
| 1788131574 | 32.78° C | 38% | 1013.5 hPa | 0 mm | - | 441 W/m² | - |
| 1788131269 | 32.78° C | 37% | 1013.3 hPa | 0 mm | - | 467 W/m² | - |
| 1788130964 | 32.78° C | 38% | 1013.3 hPa | 0 mm | - | 481 W/m² | - |
| 1788130668 | 32.22° C | 38% | 1013.5 hPa | 0 mm | - | 497 W/m² | - |
| 1788130359 | 32.22° C | 39% | 1013.5 hPa | 0 mm | - | 513 W/m² | - |
| 1788130053 | 33.33° C | 38% | 1013.5 hPa | 0 mm | - | 529 W/m² | - |
| 1788129748 | 32.78° C | 38% | 1013.8 hPa | 0 mm | - | 544 W/m² | - |
| 1788129445 | 33.33° C | 38% | 1013.4 hPa | 0 mm | - | 552 W/m² | - |
| 1788129140 | 32.78° C | 39% | 1013.7 hPa | 0 mm | - | 574 W/m² | - |
| 1788128834 | 32.78° C | 39% | 1013.5 hPa | 0 mm | - | 588 W/m² | - |
* Rain latest hour (hover to see other rain measurements)
** Current wind speed in m/s (hover to see current wind gust speed)